Date_and_time,latitude,longitude,wind_speed,RelWindDirFrom,WindDirFrom,air_pressure,air_temperature,relative_humidity,Temp,platform_speed_wrt_ground,air_pressure_at_mean_sea_level,platform_orientation
2018-09-13 00:00,50.6304366666667,-96.9807766666667,14.3,18.2,87,988.31,13.9,77,16.39,0.0,1014.86,270.0
2018-09-13 00:10,50.630435,-96.980775,14.6,19.3,78,988.05,13.9,77,16.37,0.0,1014.58,270.0
2018-09-13 00:20,50.630435,-96.980775,14.3,17.6,71,987.87,14.0,78,16.36,0.0,1014.39,270.0
2018-09-13 00:30,50.630435,-96.980775,15.0,18.8,68,987.38,13.9,77,16.34,0.0,1013.88,270.0
2018-09-13 00:40,50.630435,-96.980775,14.5,17.7,66,987.36,13.9,78,16.33,0.0,1013.86,270.0
2018-09-13 00:50,50.630435,-96.9807733333333,14.2,16.8,66,987.34,14.0,78,16.33,0.0,1013.84,270.0
2018-09-13 01:00,50.630435,-96.9807733333333,14.6,18.2,72,987.26,14.1,78,16.32,0.0,1013.75,55.2
2018-09-13 01:10,50.630435,-96.9807733333333,14.7,18.7,80,987.33,14.3,78,16.32,0.0,1013.81,55.2
2018-09-13 01:20,50.630435,-96.9807716666667,14.3,17.9,86,987.09,14.4,78,16.33,0.0,1013.55,55.2
2018-09-13 01:30,50.6304366666667,-96.9807716666667,14.6,17.4,81,986.97,14.4,79,16.34,0.0,1013.42,55.2
2018-09-13 01:40,50.630435,-96.9807716666667,15.0,18.8,82,986.57,14.5,79,16.33,0.0,1013.01,55.2
2018-09-13 01:50,50.630435,-96.9807716666667,15.1,18.8,79,986.48,14.5,80,16.32,0.0,1012.91,55.2
2018-09-13 02:00,50.6304383333333,-96.9807716666667,13.5,18.2,85,986.47,14.5,80,16.32,0.0,1012.90,360.0
2018-09-13 02:10,50.6304333333333,-96.9807666666667,14.6,19.6,82,986.12,14.5,80,16.31,0.0,1012.54,360.0
2018-09-13 02:20,50.630435,-96.9807666666667,13.5,16.3,80,985.98,14.4,81,16.31,0.0,1012.40,360.0
2018-09-13 02:30,50.630435,-96.9807666666667,14.1,17.3,81,986.09,14.4,81,16.29,0.0,1012.52,360.0
2018-09-13 02:40,50.6304616666667,-96.980785,13.9,18.6,87,985.87,14.4,82,16.29,0.0,1012.29,360.0
2018-09-13 02:50,50.6304483333333,-96.98077,15.8,19.7,86,985.37,14.5,82,16.29,0.0,1011.77,360.0
2018-09-13 03:00,50.630445,-96.9807683333333,14.2,17.6,81,985.31,14.4,83,16.28,0.0,1011.70,48.3
2018-09-13 03:10,50.6304433333333,-96.9807716666667,13.0,15.8,75,985.45,14.3,84,16.28,0.0,1011.84,48.3
2018-09-13 03:20,50.6304416666667,-96.98077,11.9,14.9,78,985.39,14.2,84,16.28,0.0,1011.78,48.3
2018-09-13 03:30,50.63044,-96.98077,11.7,14.9,72,985.23,14.2,84,16.28,0.0,1011.61,48.3
2018-09-13 03:40,50.63044,-96.9807716666667,12.2,14.7,73,984.98,14.2,86,16.29,0.0,1011.36,48.3
2018-09-13 03:50,50.63044,-96.98077,13.5,15.7,72,984.77,14.2,86,16.28,0.0,1011.15,48.3
2018-09-13 04:00,50.6304383333333,-96.98077,13.0,15.9,68,984.28,14.2,88,16.27,0.0,1010.65,12.6
2018-09-13 04:10,50.6304383333333,-96.98077,11.5,13.7,66,984.24,14.2,88,16.27,0.0,1010.60,12.6
2018-09-13 04:20,50.63044,-96.98077,11.5,16.5,62,984.28,14.1,91,16.27,0.0,1010.65,12.6
2018-09-13 04:30,50.63044,-96.9807716666667,9.1,12.9,65,984.74,14.0,93,16.27,0.0,1011.13,12.6
2018-09-13 04:40,50.63044,-96.9807716666667,13.4,18.3,36,983.62,13.8,97,16.27,0.0,1009.98,12.6
2018-09-13 04:50,50.6304383333333,-96.9807733333333,10.9,16.8,50,984.31,13.8,99,16.27,0.0,1010.70,12.6
2018-09-13 05:00,50.6304383333333,-96.9807733333333,11.0,15.3,25,984.57,13.7,99,16.26,0.0,1010.98,0.0
2018-09-13 05:10,50.6304383333333,-96.9807733333333,14.0,19.8,20,984.00,13.7,100,16.26,0.0,1010.39,0.0
2018-09-13 05:20,50.6304366666667,-96.9807883333333,15.6,19.8,27,983.84,13.5,100,16.25,0.0,1010.24,0.0
2018-09-13 05:30,50.63044,-96.9807816666667,14.2,17.3,16,984.36,13.5,100,16.24,0.0,1010.77,0.0
2018-09-13 05:40,50.6304383333333,-96.9807816666667,18.0,21.9,26,983.41,13.5,100,16.24,0.0,1009.80,0.0
2018-09-13 05:50,50.6304333333333,-96.9807816666667,16.3,22.2,36,983.28,13.2,100,16.22,0.0,1009.68,0.0
2018-09-13 06:00,50.6304366666667,-96.9807816666667,17.6,23.2,40,982.80,13.0,100,16.21,0.0,1009.19,248.5
2018-09-13 06:10,50.630425,-96.9807616666667,18.6,23.3,47,982.13,13.0,101,16.21,0.0,1008.51,248.5
2018-09-13 06:20,50.630425,-96.9807633333333,17.2,24.7,43,981.85,13.3,101,16.20,0.0,1008.21,248.5
2018-09-13 06:30,50.63043,-96.9807633333333,7.5,13.2,332,984.84,13.2,101,16.19,0.0,1011.29,248.5
2018-09-13 06:40,50.63043,-96.9807633333333,9.8,14.5,354,984.26,13.0,101,16.18,0.0,1010.70,248.5
2018-09-13 06:50,50.63044,-96.9807616666667,10.0,15.9,18,983.83,13.0,101,16.17,0.0,1010.28,248.5
2018-09-13 07:00,50.630445,-96.9807633333333,13.0,16.8,26,983.64,13.3,101,16.17,0.0,1010.06,90.0
2018-09-13 07:10,50.63044,-96.9807716666667,14.2,16.4,26,983.27,13.5,102,16.16,0.0,1009.68,90.0
2018-09-13 07:20,50.6304366666667,-96.98077,15.3,22.4,29,982.89,13.6,102,16.16,0.0,1009.28,90.0
2018-09-13 07:30,50.6304333333333,-96.9807716666667,24.0,29.7,51,980.04,13.8,102,16.15,0.0,1006.35,90.0
2018-09-13 07:40,50.6304416666667,-96.9807733333333,19.7,26.3,52,980.29,14.1,102,16.15,0.0,1006.61,90.0
2018-09-13 07:50,50.63044,-96.9807666666667,11.6,17.9,45,981.95,14.1,101,16.15,0.0,1008.32,90.0
2018-09-13 08:00,50.63044,-96.9807683333333,7.0,8.4,20,982.81,14.2,101,16.14,0.0,1009.20,90.0
2018-09-13 08:10,50.63044,-96.9807733333333,7.1,8.8,36,982.40,14.3,101,16.14,0.0,1008.77,90.0
2018-09-13 08:20,50.63044,-96.9807716666667,10.0,12.0,46,981.52,14.3,101,16.14,0.0,1007.86,90.0
2018-09-13 08:30,50.63044,-96.9807716666667,10.0,13.4,33,981.47,14.5,101,16.14,0.0,1007.81,90.0
2018-09-13 08:40,50.6304416666667,-96.9807766666667,10.8,13.4,66,980.93,14.8,101,16.14,0.0,1007.24,90.0
2018-09-13 08:50,50.63044,-96.9807733333333,12.8,14.5,73,980.44,15.2,101,16.14,0.0,1006.70,90.0
2018-09-13 09:00,50.6304383333333,-96.980775,10.0,13.4,87,980.37,15.6,102,16.14,0.0,1006.61,54.7
2018-09-13 09:10,50.63044,-96.9807733333333,7.2,9.4,95,980.14,15.8,102,16.15,0.0,1006.36,54.7
2018-09-13 09:20,50.63044,-96.9807733333333,7.1,8.8,109,980.44,16.1,102,16.16,0.0,1006.64,54.7
2018-09-13 09:30,50.63044,-96.9807733333333,11.1,16.1,101,980.17,16.2,102,16.14,0.0,1006.35,54.7
2018-09-13 09:40,50.6304383333333,-96.9807716666667,13.5,16.8,98,980.11,16.5,101,16.13,0.0,1006.27,54.7
2018-09-13 09:50,50.6304383333333,-96.9807716666667,15.0,19.0,105,980.00,16.5,101,16.13,0.0,1006.16,54.7
2018-09-13 10:00,50.6304366666667,-96.9807733333333,14.1,18.0,111,979.93,16.5,101,16.14,0.0,1006.07,228.3
2018-09-13 10:10,50.6304366666667,-96.9807733333333,14.5,16.9,111,979.97,16.6,101,16.14,0.0,1006.11,228.3
2018-09-13 10:20,50.6304366666667,-96.980775,13.1,16.2,108,979.84,16.6,101,16.14,0.0,1005.97,228.3
2018-09-13 10:30,50.6304366666667,-96.980775,10.1,14.2,95,979.49,16.6,101,16.13,0.0,1005.60,228.3
2018-09-13 10:40,50.6304366666667,-96.980775,9.3,12.6,82,979.29,16.7,101,16.14,0.0,1005.37,228.3
2018-09-13 10:50,50.63043,-96.9807733333333,6.0,8.8,63,979.33,16.7,101,16.14,0.0,1005.39,228.3
2018-09-13 11:00,50.6304316666667,-96.9807683333333,5.3,6.5,4,979.38,16.6,101,16.12,0.0,1005.44,360.0
2018-09-13 11:10,50.630425,-96.9807583333333,3.1,4.9,336,979.95,16.4,101,16.12,0.0,1006.03,360.0
2018-09-13 11:20,50.630435,-96.9807566666667,3.8,5.4,308,980.28,16.3,101,16.13,0.0,1006.35,360.0
2018-09-13 11:30,50.630435,-96.9807583333333,2.8,4.6,272,980.96,16.1,101,16.13,0.0,1007.06,360.0
2018-09-13 11:40,50.630435,-96.98076,2.3,3.5,280,981.15,16.0,101,16.13,0.0,1007.25,360.0
2018-09-13 11:50,50.6304366666667,-96.9807616666667,4.0,5.4,314,981.16,16.0,101,16.11,0.0,1007.27,360.0
2018-09-13 12:00,50.6304366666667,-96.9807616666667,1.7,3.3,306,981.10,15.9,101,16.11,0.0,1007.20,125.3
2018-09-13 12:10,50.6304366666667,-96.9807616666667,2.0,5.0,286,981.13,15.8,101,16.11,0.0,1007.24,125.3
2018-09-13 12:20,50.6304383333333,-96.9807616666667,2.7,8.4,260,980.75,15.5,101,16.12,0.0,1006.86,125.3
2018-09-13 12:30,50.6304383333333,-96.9807616666667,2.6,6.8,264,980.72,15.0,101,16.12,0.0,1006.85,125.3
2018-09-13 12:40,50.6304383333333,-96.9807616666667,5.8,9.4,343,980.85,15.2,101,16.11,0.0,1006.98,125.3
2018-09-13 12:50,50.6304383333333,-96.9807616666667,6.1,10.7,334,980.79,15.0,101,16.12,0.0,1006.93,125.3
2018-09-13 13:00,50.6304383333333,-96.9807616666667,4.6,6.9,322,980.67,14.7,101,16.12,0.0,1006.83,54.7
2018-09-13 13:10,50.6304283333333,-96.9808033333333,4.7,6.2,331,980.53,14.4,101,16.10,0.0,1006.70,54.7
2018-09-13 13:20,50.6304283333333,-96.98078,2.6,5.6,288,980.66,14.2,101,16.07,0.0,1006.85,54.7
2018-09-13 13:30,50.6304283333333,-96.9807766666667,1.7,4.8,339,980.57,14.2,102,16.08,0.0,1006.76,54.7
2018-09-13 13:40,50.6304166666667,-96.9807716666667,3.1,5.0,333,980.63,14.3,102,16.08,0.0,1006.81,54.7
2018-09-13 13:50,50.6304166666667,-96.9807616666667,2.8,4.1,307,980.82,14.2,102,16.05,0.0,1007.03,54.7
2018-09-13 14:00,50.6304233333333,-96.980765,3.3,5.1,291,980.92,14.0,102,16.06,0.0,1007.14,142.0
2018-09-13 14:10,50.6304233333333,-96.980765,2.0,4.6,306,980.60,13.8,101,16.08,0.0,1006.83,142.0
2018-09-13 14:20,50.63043,-96.9807733333333,2.6,4.7,285,980.63,13.8,101,16.09,0.0,1006.88,142.0
2018-09-13 14:30,50.6304266666667,-96.98077,3.4,4.6,298,980.74,13.8,101,16.09,0.0,1007.00,142.0
2018-09-13 14:40,50.6304283333333,-96.9807716666667,3.8,6.8,294,980.92,13.7,101,16.07,0.0,1007.19,142.0
2018-09-13 14:50,50.6304316666667,-96.980775,4.3,6.3,294,980.92,13.6,101,16.06,0.0,1007.21,142.0
2018-09-13 15:00,50.6304316666667,-96.98079,5.0,6.6,293,980.99,13.4,101,16.06,0.0,1007.30,256.3
2018-09-13 15:10,50.6304183333333,-96.9807716666667,4.9,7.2,298,981.01,13.4,101,16.07,0.0,1007.34,256.3
2018-09-13 15:20,50.6304166666667,-96.980765,5.5,7.7,308,980.97,13.4,101,16.09,0.0,1007.29,256.3
2018-09-13 15:30,50.630415,-96.980765,4.5,6.5,304,981.11,13.3,101,16.10,0.0,1007.43,256.3
2018-09-13 15:40,50.6304183333333,-96.980765,3.9,6.4,295,981.37,13.4,101,16.10,0.0,1007.70,256.3
2018-09-13 15:50,50.63042,-96.98077,2.9,4.0,309,981.21,13.6,101,16.10,0.0,1007.54,256.3
2018-09-13 16:00,50.6304283333333,-96.98078,2.8,4.4,339,980.97,13.8,101,16.10,0.0,1007.29,223.0
2018-09-13 16:10,50.63044,-96.98078,2.7,4.4,288,981.47,13.8,101,16.08,0.0,1007.81,223.0
2018-09-13 16:20,50.6304366666667,-96.9807816666667,4.7,6.6,286,981.70,14.1,101,16.06,0.0,1008.03,223.0
2018-09-13 16:30,50.6304366666667,-96.9807766666667,4.6,9.1,289,981.80,14.3,101,16.05,0.0,1008.12,223.0
2018-09-13 16:40,50.630435,-96.98078,5.5,9.7,287,981.90,14.1,101,16.05,0.0,1008.25,223.0
2018-09-13 16:50,50.630435,-96.98078,6.4,8.9,303,981.60,13.8,101,16.07,0.0,1007.95,223.0
2018-09-13 17:00,50.630435,-96.9807783333333,7.1,12.5,289,982.06,13.7,101,16.12,0.0,1008.44,304.8
2018-09-13 17:10,50.6304366666667,-96.9807783333333,6.0,10.7,299,982.06,13.7,101,16.14,0.0,1008.43,304.8
2018-09-13 17:20,50.630435,-96.9807783333333,5.1,9.0,306,982.02,13.7,101,16.15,0.0,1008.40,304.8
2018-09-13 17:30,50.630435,-96.9807766666667,5.5,9.1,303,982.06,13.6,101,16.15,0.0,1008.44,304.8
2018-09-13 17:40,50.630435,-96.9807766666667,7.6,10.4,302,981.98,13.7,100,16.13,0.0,1008.35,304.8
2018-09-13 17:50,50.6304416666667,-96.9807833333333,7.7,12.1,303,982.11,13.6,101,16.11,0.0,1008.47,304.8
2018-09-13 18:00,50.6304266666667,-96.9807766666667,6.7,12.6,307,981.79,13.6,101,16.11,0.0,1008.15,113.6
2018-09-13 18:10,50.63043,-96.9807716666667,7.3,11.0,297,982.18,13.6,101,16.13,0.0,1008.53,113.6
2018-09-13 18:20,50.6304283333333,-96.9807683333333,8.3,12.9,294,982.45,13.6,101,16.16,0.0,1008.80,113.6
2018-09-13 18:30,50.6304216666667,-96.9807883333333,6.7,12.6,295,982.37,13.6,101,16.16,0.0,1008.73,113.6
2018-09-13 18:40,50.630425,-96.9807466666667,7.4,12.0,299,982.54,13.3,101,16.16,0.0,1008.92,113.6
2018-09-13 18:50,50.63042,-96.9807716666667,5.4,8.7,309,982.61,13.4,101,16.17,0.0,1009.00,113.6
2018-09-13 19:00,50.6304216666667,-96.9807733333333,7.9,11.5,311,982.56,13.3,100,16.18,0.0,1008.95,119.2
2018-09-13 19:10,50.630425,-96.9807733333333,6.2,12.0,298,982.97,13.3,100,16.20,0.0,1009.38,119.2
2018-09-13 19:20,50.6304433333333,-96.980765,6.9,10.5,285,983.28,13.3,100,16.20,0.0,1009.69,119.2
2018-09-13 19:30,50.630445,-96.980775,6.0,10.1,293,983.31,13.2,100,16.19,0.0,1009.72,119.2
2018-09-13 19:40,50.6304383333333,-96.98077,5.2,9.4,268,983.63,13.2,100,16.20,0.0,1010.06,119.2
2018-09-13 19:50,50.630435,-96.98077,5.2,8.7,293,983.58,13.2,100,16.20,0.0,1010.01,119.2
2018-09-13 20:00,50.630435,-96.98077,7.9,13.8,303,983.46,13.3,100,16.20,0.0,1009.88,90.0
2018-09-13 20:10,50.6304333333333,-96.98077,7.6,12.4,301,983.52,13.3,100,16.19,0.0,1009.95,90.0
2018-09-13 20:20,50.6304266666667,-96.9807683333333,6.3,9.3,305,983.55,13.2,100,16.20,0.0,1009.98,90.0
2018-09-13 20:30,50.63043,-96.9807766666667,7.7,11.2,297,983.62,13.1,100,16.20,0.0,1010.07,90.0
2018-09-13 20:40,50.630435,-96.980755,7.0,11.7,303,983.84,13.3,100,16.20,0.0,1010.28,90.0
2018-09-13 20:50,50.6304333333333,-96.980755,6.2,9.6,294,984.45,13.3,100,16.19,0.0,1010.91,90.0
2018-09-13 21:00,50.6304333333333,-96.9807566666667,5.9,9.4,298,984.37,13.4,100,16.19,0.0,1010.83,54.7
2018-09-13 21:10,50.6304316666667,-96.980755,6.9,11.3,308,983.76,13.4,100,16.18,0.0,1010.20,54.7
2018-09-13 21:20,50.63043,-96.9807566666667,7.2,11.4,316,983.73,13.5,100,16.18,0.0,1010.17,54.7
2018-09-13 21:30,50.63043,-96.98076,7.0,12.0,295,984.05,13.3,100,16.17,0.0,1010.50,54.7
2018-09-13 21:40,50.630425,-96.9807733333333,6.8,11.8,299,984.23,13.3,100,16.17,0.0,1010.69,54.7
2018-09-13 21:50,50.6304266666667,-96.9807666666667,6.0,11.3,286,984.72,13.4,100,16.17,0.0,1011.19,54.7
2018-09-13 22:00,50.6304416666667,-96.9807816666667,3.9,7.3,302,984.91,13.6,100,16.17,0.0,1011.38,327.9
2018-09-13 22:10,50.6304366666667,-96.9807783333333,4.3,8.9,271,985.16,13.5,100,16.17,0.0,1011.64,327.9
2018-09-13 22:20,50.6304283333333,-96.98076,4.9,9.9,286,984.85,13.5,100,16.16,0.0,1011.32,327.9
2018-09-13 22:30,50.63043,-96.9807666666667,7.3,10.7,312,984.68,13.7,100,16.16,0.0,1011.13,327.9
2018-09-13 22:40,50.63043,-96.9807666666667,5.8,9.9,297,984.89,13.7,100,16.16,0.0,1011.35,327.9
2018-09-13 22:50,50.6304316666667,-96.9807683333333,6.0,10.6,290,985.24,13.6,100,16.16,0.0,1011.71,327.9
2018-09-13 23:00,50.6304216666667,-96.9807583333333,4.9,8.6,294,985.58,13.7,100,16.16,0.0,1012.06,156.5
2018-09-13 23:10,50.6304433333333,-96.9807833333333,4.8,8.8,292,985.52,13.7,99,16.15,0.0,1011.98,156.5
2018-09-13 23:20,50.6304583333333,-96.980795,4.1,6.8,288,985.77,13.8,99,16.15,0.0,1012.24,156.5
2018-09-13 23:30,50.6304416666667,-96.98078,4.4,7.4,309,985.56,13.8,99,16.16,0.0,1012.03,156.5
2018-09-13 23:40,50.63044,-96.980775,5.5,9.3,304,985.59,13.7,99,16.16,0.0,1012.06,156.5
